This is the latest recevied weather packets stored in our database for station/object NQ9F. If no packets are shown the sender has not sent any weather packets the latest 10 day(s).
| Time | Temp. | Humidity | Pressure | Rain* | Wind** | Luminosity | Snow |
|---|---|---|---|---|---|---|---|
| 1777769901 | 22.22° C | 46% | 1018.9 hPa | 0 mm | - | 18 W/m² | - |
| 1777769598 | 22.22° C | 46% | 1019.4 hPa | 0 mm | - | 26 W/m² | - |
| 1777769295 | 22.78° C | 45% | 1019 hPa | 0 mm | - | 39 W/m² | - |
| 1777768993 | 22.78° C | 44% | 1018.8 hPa | 0 mm | - | 45 W/m² | - |
| 1777768690 | 22.78° C | 44% | 1019.1 hPa | 0 mm | - | 55 W/m² | - |
| 1777768386 | 23.89° C | 40% | 1019 hPa | 0 mm | - | 68 W/m² | - |
| 1777768083 | 23.89° C | 38% | 1019 hPa | 0 mm | - | 80 W/m² | - |
| 1777767780 | 23.89° C | 39% | 1018.9 hPa | 0 mm | - | 91 W/m² | - |
| 1777767476 | 25° C | 39% | 1019 hPa | 0 mm | - | 106 W/m² | - |
| 1777767168 | 25° C | 41% | 1019.3 hPa | 0 mm | - | 121 W/m² | - |
| 1777766865 | 24.44° C | 39% | 1019 hPa | 0 mm | - | 138 W/m² | - |
| 1777766562 | 24.44° C | 42% | 1019 hPa | 0 mm | - | 157 W/m² | - |
| 1777766259 | 23.89° C | 40% | 1019.1 hPa | 0 mm | - | 171 W/m² | - |
| 1777765957 | 23.89° C | 41% | 1019 hPa | 0 mm | - | 190 W/m² | - |
| 1777765652 | 23.89° C | 39% | 1019.1 hPa | 0 mm | - | 209 W/m² | - |
| 1777765345 | 25° C | 36% | 1019.4 hPa | 0 mm | - | 229 W/m² | - |
| 1777765041 | 24.44° C | 39% | 1019 hPa | 0 mm | - | 244 W/m² | - |
| 1777764738 | 24.44° C | 39% | 1019.3 hPa | 0 mm | - | 269 W/m² | - |
| 1777764433 | 23.89° C | 37% | 1019.4 hPa | 0 mm | - | 288 W/m² | - |
| 1777764131 | 24.44° C | 40% | 1019.3 hPa | 0 mm | - | 310 W/m² | - |
| 1777763827 | 24.44° C | 36% | 1019.4 hPa | 0 mm | - | 331 W/m² | - |
| 1777763525 | 23.89° C | 39% | 1019.4 hPa | 0 mm | - | 370 W/m² | - |
| 1777763224 | 23.33° C | 41% | 1019.3 hPa | 0 mm | - | 382 W/m² | - |
| 1777762922 | 23.33° C | 40% | 1019.6 hPa | 0 mm | - | 97 W/m² | - |
| 1777762617 | 23.33° C | 39% | 1019.3 hPa | 0 mm | - | 115 W/m² | - |
* Rain latest hour (hover to see other rain measurements)
** Current wind speed in m/s (hover to see current wind gust speed)